Location: Balaclava NSW 2575, Australia
(34.4510°S, 150.4953°E)
Time: 17:16:47
(UTC+10:00)

Envisat - Pass Details

Date: 20 May 2021
Orbit: 764 x 766 km, 98.1° (Epoch: 18 June)

Event Time Altitude Azimuth Distance (km) Brightness Sun altitude
Rises 05:18:45 0° 352° (N) 3,216 6.3 -18.3°
Reaches altitude 10° 05:21:13 10° 343° (NNW) 2,298 5.4 -17.8°
Maximum altitude 05:25:50 35° 278° (W) 1,232 3.6 -16.9°
Enters shadow 05:28:13 23° 230° (SW) 1,598 4.1 -16.4°
